Location: ????????
(55.0559°N, 39.1270°E)
Time: 17:58:35
(UTC+00:00)

Cosmos 2237 Rocket - Pass Details

Date: 15 November 2025
Orbit: 835 x 847 km, 71.0° (Epoch: 14 December)

Event Time Altitude Azimuth Distance (km) Brightness Sun altitude
Exits shadow 00:13:46 18° 106° (ESE) 1,959 4.4 -39.4°
Maximum altitude 00:14:14 18° 99° (E) 1,951 4.5 -39.3°
Drops below altitude 10° 00:17:55 10° 58° (ENE) 2,465 5.3 -38.8°
Sets 00:21:05 0° 41° (NE) 3,403 6.1 -38.4°
